Regional Weather Roundup
Issued by NWS Glasgow, MT

Home | Current Version | Previous Version | Text Only | Print | Product List | Glossary On
Versions: 1 2 3 4 5 6 7 8 9 10 11 12 13 14 15 16 17 18 19 20 21 22 23 24 25 26 27 28 29 30 31 32 33 34 35 36 37 38 39 40 41 42 43 44 45 46 47 48 49 50
000
ASUS45 KGGW 050715
RWRGGW
HOURLY WEATHER ROUNDUP FOR NORTHEAST MONTANA
NATIONAL WEATHER SERVICE GLASGOW MONTANA
1200 AM MST THU MAR 05 2015

NOTE: "FAIR" INDICATES FEW OR NO CLOUDS BELOW 12,000 FEET WITH NO
SIGNIFICANT WEATHER AND/OR OBSTRUCTIONS TO VISISBILITY.

NORTHEAST MONTANA


CITY           SKY/WX    TMP DP  RH WIND       PRES   REMARKS
GLASGOW        CLEAR      9  -2  61 E15       30.06F WCI  -8
PLENTYWOOD       N/A     -2  -8  76 E5          N/A
WOLF POINT     CLEAR      5  -3  69 NE7       30.13F
JORDAN           N/A     17   5  59 SW7       30.06F
WINNETT          N/A     17  10  74 SW2         N/A
SIDNEY         CLEAR      1   1 100 CALM      30.20F
GLENDIVE       CLEAR      7  -4  61 S10       30.13F WCI  -8
MALTA            N/A     21   7  54 S7G18       N/A

FORT PECK REPORTS


CITY           SKY/WX    TMP DP  RH WIND       PRES   REMARKS
FORT PECK        N/A     15   3  59 SE15        N/A  WCI   0
THE PINES        N/A     17   5  59 S7          N/A

SOUTHEAST MONTANA


CITY           SKY/WX    TMP DP  RH WIND       PRES   REMARKS
BILLINGS       CLEAR     22   4  46 SW24      30.06S
MILES CITY     CLEAR      9  -1  64 SE9       30.12F
BAKER          CLEAR      5  -3  69 S3        30.13F
LIVINGSTON     PTCLDY    31   9  39 W21G28    30.08R

CENTRAL MONTANA


CITY           SKY/WX    TMP DP  RH WIND       PRES   REMARKS
HAVRE          PTCLDY    26  14  60 SW13      29.99F
LEWISTOWN      CLEAR     19   7  59 W10       30.02R
GREAT FALLS    CLEAR     26  14  60 SW12      30.04R
CUT BANK       CLEAR     29  10  45 W23G33    29.99R
HELENA         PTCLDY    35  10  35 W13G25    30.13R
BUTTE          CLOUDY    25   9  50 NE3       30.15S
BOZEMAN        PTCLDY    18  10  71 S5        30.15S

WESTERN MONTANA


CITY           SKY/WX    TMP DP  RH WIND       PRES   REMARKS
MISSOULA       CLEAR     24  14  65 W7        30.27R
KALISPELL      NOT AVBL

NORTH DAKOTA


CITY           SKY/WX    TMP DP  RH WIND       PRES   REMARKS
WILLISTON      PTCLDY     1  -9  62 S6        30.19F
DICKINSON      CLEAR     -1  -9  68 S10       30.15F WCI -17
MINOT          CLEAR     -6 -15  65 S10       30.25F WCI -24
BISMARCK       PTCLDY    -7 -13  75 SE5       30.33F

SOUTHERN SASKATCHEWAN


CITY           SKY/WX    TMP DP  RH WIND       PRES   REMARKS
REGINA         PTCLDY   -13 -18  77 SE14      30.10F WCI -35
ESTEVAN        CLEAR    -15 -20  76 S7        30.17F
SWIFT CURRENT  CLOUDY    10   1  67 S18       29.94F WCI  -8



USA.gov is the U.S. government's official web portal to all federal, state and local government web resources and services.